Location: Peterborough
(44.3048°N, 78.3199°W)
Time: 03:27:20
(UTC-04:00)

ISS - Pass Details

Date: 17 May 2025
Orbit: 415 x 418 km, 51.6° (Epoch: 20 June)

Event Time Altitude Azimuth Distance (km) Brightness Sun altitude
Rises 22:20:49 0° 295° (WNW) 2,361 1.3 -15.4°
Reaches altitude 10° 22:23:11 10° 311° (NW) 1,496 0.4 -15.6°
Maximum altitude 22:25:58 24° 7° (N) 924 -1.5 -16.0°
Drops below altitude 10° 22:28:45 10° 63° (ENE) 1,492 -1.1 -16.3°
Enters shadow 22:29:16 - 67° (ENE) 1,668 -0.9 -16.3°
